SWA1151 KCVG-KBNA

Flight info

Callsign SWA1151
Flight time 0h 50m
Altitude 34000
Route CHCLL6 CHCLL LOONE RYYMN3
Aircraft B38M/M-SDE1FGHILORVWXY/HB1

Departure

Time 2026-05-06 01:44
Airport Cincinnati Northern Kentucky International Airport (KCVG)

Arrival

Time 2026-05-06 02:34
Airport Nashville International Airport (KBNA)
Time Latitude Longitude Altitude Speed Heading
2026-05-06 01:19 39.05385 -84.65640 880 ft 0 kts 90°
2026-05-06 01:34 39.05385 -84.65641 880 ft 2 kts 90°
2026-05-06 01:34 39.05386 -84.65662 880 ft 2 kts 90°
2026-05-06 01:35 39.05386 -84.65682 880 ft 2 kts 90°
2026-05-06 01:35 39.05386 -84.65703 879 ft 2 kts 100°
2026-05-06 01:35 39.05390 -84.65723 879 ft 2 kts 116°
2026-05-06 01:35 39.05399 -84.65741 880 ft 2 kts 159°
2026-05-06 01:36 39.05404 -84.65743 879 ft 0 kts 198°
2026-05-06 01:39 39.05387 -84.65758 879 ft 10 kts 216°
2026-05-06 01:39 39.05282 -84.65789 879 ft 19 kts 177°
2026-05-06 01:40 39.05194 -84.65853 880 ft 16 kts 262°
2026-05-06 01:40 39.05208 -84.65988 880 ft 9 kts 236°
2026-05-06 01:40 39.05113 -84.66013 880 ft 20 kts 185°
2026-05-06 01:40 39.04942 -84.66016 880 ft 21 kts 180°
2026-05-06 01:41 39.04838 -84.66009 880 ft 2 kts 141°
2026-05-06 01:41 39.04813 -84.65945 880 ft 13 kts 89°
2026-05-06 01:41 39.04810 -84.65771 880 ft 24 kts 90°
2026-05-06 01:41 39.04812 -84.65588 880 ft 6 kts 95°
2026-05-06 01:42 39.04810 -84.65581 880 ft 2 kts 106°
2026-05-06 01:42 39.04788 -84.65551 880 ft 8 kts 140°
2026-05-06 01:42 39.04737 -84.65492 881 ft 7 kts 140°
2026-05-06 01:42 39.04723 -84.65481 881 ft 0 kts 150°
2026-05-06 01:43 39.04717 -84.65477 881 ft 3 kts 153°
2026-05-06 01:43 39.04681 -84.65464 883 ft 7 kts 172°
2026-05-06 01:43 39.04632 -84.65500 884 ft 15 kts 252°
2026-05-06 01:44 39.04626 -84.65968 883 ft 90 kts 270°
2026-05-06 01:44 39.04625 -84.67051 1009 ft 141 kts 270°
2026-05-06 01:44 39.04623 -84.68331 1694 ft 141 kts 263°
2026-05-06 01:44 39.04630 -84.69438 2664 ft 116 kts 261°
2026-05-06 01:45 39.04614 -84.70614 2634 ft 155 kts 261°
2026-05-06 01:45 39.04611 -84.72117 2966 ft 166 kts 263°
2026-05-06 01:45 39.04573 -84.73464 3820 ft 147 kts 243°
2026-05-06 01:45 39.03978 -84.74542 4219 ft 155 kts 225°
2026-05-06 01:46 39.02988 -84.75289 4622 ft 179 kts 203°
2026-05-06 01:46 39.01732 -84.75766 5103 ft 197 kts 202°
2026-05-06 01:46 39.00374 -84.76292 5532 ft 212 kts 203°
2026-05-06 01:46 38.98927 -84.76890 5999 ft 227 kts 204°
2026-05-06 01:47 38.97369 -84.77543 6450 ft 242 kts 203°
2026-05-06 01:47 38.95740 -84.78217 7063 ft 250 kts 203°
2026-05-06 01:47 38.94069 -84.78906 7723 ft 254 kts 204°
2026-05-06 01:47 38.92372 -84.79608 8464 ft 258 kts 204°
2026-05-06 01:48 38.90677 -84.80311 9191 ft 261 kts 204°
2026-05-06 01:48 38.88937 -84.81032 9895 ft 265 kts 204°
2026-05-06 01:48 38.87157 -84.81770 10420 ft 274 kts 205°
2026-05-06 01:48 38.85296 -84.82544 10795 ft 289 kts 204°
2026-05-06 01:49 38.83331 -84.83357 11075 ft 305 kts 204°
2026-05-06 01:49 38.81272 -84.84204 11544 ft 315 kts 204°
2026-05-06 01:49 38.79166 -84.85069 12119 ft 321 kts 204°
2026-05-06 01:49 38.77023 -84.85952 12693 ft 326 kts 204°
2026-05-06 01:50 38.74848 -84.86850 13314 ft 331 kts 204°
2026-05-06 01:50 38.72670 -84.87747 13910 ft 335 kts 204°
2026-05-06 01:50 38.70444 -84.88663 14496 ft 338 kts 204°
2026-05-06 01:50 38.68193 -84.89589 15105 ft 341 kts 204°
2026-05-06 01:51 38.66356 -84.90344 15592 ft 343 kts 204°
2026-05-06 01:51 38.64042 -84.91295 16196 ft 347 kts 204°
2026-05-06 01:51 38.61763 -84.92231 16775 ft 349 kts 204°
2026-05-06 01:51 38.59470 -84.93172 17350 ft 352 kts 204°
2026-05-06 01:52 38.57127 -84.94132 17929 ft 355 kts 204°
2026-05-06 01:52 38.54766 -84.95100 18449 ft 358 kts 204°
2026-05-06 01:52 38.52393 -84.96102 18935 ft 358 kts 208°
2026-05-06 01:52 38.50192 -84.97531 19444 ft 354 kts 218°
2026-05-06 01:53 38.48256 -84.99440 19949 ft 351 kts 228°
2026-05-06 01:53 38.46641 -85.01754 20453 ft 349 kts 237°
2026-05-06 01:53 38.45387 -85.04387 20949 ft 348 kts 245°
2026-05-06 01:53 38.44268 -85.07139 21457 ft 350 kts 245°
2026-05-06 01:54 38.43153 -85.09864 21952 ft 352 kts 245°
2026-05-06 01:54 38.42018 -85.12638 22450 ft 354 kts 245°
2026-05-06 01:54 38.40876 -85.15434 22950 ft 356 kts 245°
2026-05-06 01:54 38.39728 -85.18244 23436 ft 358 kts 245°
2026-05-06 01:55 38.38573 -85.21065 23838 ft 360 kts 245°
2026-05-06 01:55 38.37409 -85.23902 24239 ft 362 kts 245°
2026-05-06 01:55 38.36241 -85.26751 24657 ft 364 kts 246°
2026-05-06 01:55 38.35071 -85.29599 25192 ft 362 kts 246°
2026-05-06 01:56 38.33908 -85.32427 25753 ft 359 kts 246°
2026-05-06 01:56 38.32769 -85.35196 26283 ft 357 kts 247°
2026-05-06 01:56 38.31622 -85.37984 26814 ft 355 kts 247°
2026-05-06 01:56 38.30480 -85.40755 27326 ft 353 kts 248°
2026-05-06 01:57 38.29341 -85.43520 27744 ft 354 kts 248°
2026-05-06 01:57 38.28186 -85.46325 27810 ft 363 kts 248°
2026-05-06 01:57 38.26997 -85.49208 27808 ft 370 kts 247°
2026-05-06 01:57 38.25797 -85.52099 27808 ft 370 kts 247°
2026-05-06 01:58 38.24594 -85.55000 27809 ft 371 kts 247°
2026-05-06 01:58 38.23391 -85.57907 27810 ft 371 kts 247°
2026-05-06 01:58 38.22189 -85.60810 27810 ft 371 kts 247°
2026-05-06 01:58 38.20999 -85.63676 27811 ft 372 kts 247°
2026-05-06 01:59 38.19791 -85.66582 27811 ft 372 kts 247°
2026-05-06 01:59 38.18585 -85.69483 27820 ft 372 kts 247°
2026-05-06 01:59 38.17377 -85.72387 27820 ft 372 kts 247°
2026-05-06 01:59 38.16166 -85.75292 27820 ft 372 kts 247°
2026-05-06 02:00 38.14958 -85.78190 27817 ft 372 kts 247°
2026-05-06 02:00 38.13746 -85.81094 27816 ft 371 kts 247°
2026-05-06 02:00 38.12536 -85.83991 27817 ft 372 kts 247°
2026-05-06 02:00 38.11324 -85.86890 27810 ft 372 kts 247°
2026-05-06 02:01 38.10123 -85.89760 27830 ft 373 kts 247°
2026-05-06 02:01 38.08929 -85.92600 27822 ft 357 kts 247°
2026-05-06 02:01 38.07751 -85.95409 27837 ft 361 kts 247°
2026-05-06 02:01 38.06575 -85.98237 27839 ft 372 kts 247°
2026-05-06 02:02 38.05355 -86.01138 27840 ft 372 kts 247°
2026-05-06 02:02 38.04131 -86.04033 27832 ft 373 kts 247°
2026-05-06 02:02 38.02908 -86.06939 27835 ft 373 kts 247°
2026-05-06 02:02 38.01688 -86.09843 27824 ft 373 kts 247°
2026-05-06 02:03 38.00464 -86.12748 27821 ft 373 kts 247°
2026-05-06 02:03 37.99242 -86.15641 27826 ft 373 kts 247°
2026-05-06 02:03 37.98018 -86.18537 27821 ft 373 kts 247°
2026-05-06 02:03 37.96792 -86.21439 27831 ft 372 kts 247°
2026-05-06 02:04 37.95587 -86.24287 27826 ft 372 kts 247°
2026-05-06 02:04 37.94364 -86.27175 27819 ft 372 kts 247°
2026-05-06 02:04 37.93141 -86.30061 27819 ft 372 kts 247°
2026-05-06 02:04 37.91916 -86.32948 27816 ft 372 kts 247°
2026-05-06 02:05 37.90691 -86.35832 27825 ft 372 kts 247°
2026-05-06 02:05 37.89467 -86.38713 27797 ft 371 kts 246°
2026-05-06 02:05 37.88241 -86.41597 27811 ft 373 kts 246°
2026-05-06 02:05 37.87011 -86.44485 27811 ft 372 kts 246°
2026-05-06 02:06 37.85782 -86.47367 27814 ft 372 kts 246°
2026-05-06 02:06 37.84550 -86.50255 27811 ft 373 kts 246°
2026-05-06 02:06 37.83336 -86.53099 27811 ft 373 kts 246°
2026-05-06 02:06 37.82103 -86.55985 27812 ft 373 kts 246°
2026-05-06 02:07 37.80871 -86.58864 27812 ft 373 kts 246°
2026-05-06 02:07 37.79637 -86.61746 27813 ft 372 kts 246°
2026-05-06 02:07 37.78405 -86.64623 27817 ft 372 kts 246°
2026-05-06 02:07 37.77193 -86.67449 27818 ft 373 kts 246°
2026-05-06 02:08 37.75958 -86.70325 27822 ft 373 kts 246°
2026-05-06 02:08 37.74566 -86.73108 27827 ft 378 kts 239°
2026-05-06 02:08 37.72855 -86.75655 27836 ft 384 kts 232°
2026-05-06 02:08 37.70840 -86.77918 27832 ft 391 kts 225°
2026-05-06 02:09 37.68588 -86.79888 27831 ft 395 kts 222°
2026-05-06 02:09 37.66342 -86.81797 27809 ft 394 kts 222°
2026-05-06 02:09 37.64069 -86.83740 27821 ft 395 kts 222°
2026-05-06 02:09 37.61789 -86.85683 27820 ft 394 kts 222°
2026-05-06 02:10 37.59515 -86.87613 27816 ft 394 kts 222°
2026-05-06 02:10 37.57269 -86.89513 27776 ft 383 kts 222°
2026-05-06 02:10 37.55076 -86.91372 27396 ft 377 kts 222°
2026-05-06 02:10 37.52917 -86.93213 26877 ft 374 kts 222°
2026-05-06 02:11 37.50766 -86.95041 26404 ft 372 kts 222°
2026-05-06 02:11 37.48622 -86.96852 25882 ft 370 kts 222°
2026-05-06 02:11 37.46484 -86.98662 25391 ft 371 kts 222°
2026-05-06 02:11 37.44364 -87.00460 24883 ft 374 kts 221°
2026-05-06 02:12 37.42202 -87.02288 24365 ft 374 kts 221°
2026-05-06 02:12 37.40048 -87.04103 23849 ft 372 kts 221°
2026-05-06 02:12 37.37844 -87.05820 23322 ft 376 kts 214°
2026-05-06 02:12 37.35407 -87.07085 22870 ft 381 kts 205°
2026-05-06 02:13 37.32805 -87.07833 22631 ft 388 kts 195°
2026-05-06 02:13 37.30092 -87.08055 22150 ft 392 kts 189°
2026-05-06 02:13 37.27378 -87.08147 21630 ft 389 kts 189°
2026-05-06 02:13 37.24685 -87.08245 21182 ft 385 kts 189°
2026-05-06 02:14 37.22016 -87.08348 20783 ft 383 kts 189°
2026-05-06 02:14 37.19366 -87.08449 20370 ft 380 kts 189°
2026-05-06 02:14 37.16731 -87.08546 19986 ft 378 kts 189°
2026-05-06 02:14 37.14109 -87.08643 19615 ft 376 kts 189°
2026-05-06 02:15 37.11541 -87.08738 19232 ft 373 kts 189°
2026-05-06 02:15 37.08954 -87.08835 18850 ft 371 kts 189°
2026-05-06 02:15 37.06387 -87.08930 18471 ft 368 kts 188°
2026-05-06 02:15 37.03841 -87.09024 18085 ft 365 kts 188°
2026-05-06 02:16 37.01308 -87.09118 17683 ft 362 kts 188°
2026-05-06 02:16 36.98797 -87.09211 17313 ft 360 kts 188°
2026-05-06 02:16 36.96295 -87.09304 16936 ft 358 kts 188°
2026-05-06 02:16 36.93815 -87.09396 16722 ft 357 kts 188°
2026-05-06 02:17 36.91335 -87.09489 16379 ft 356 kts 188°
2026-05-06 02:17 36.88898 -87.09578 16021 ft 354 kts 188°
2026-05-06 02:17 36.86440 -87.09668 15657 ft 352 kts 188°
2026-05-06 02:17 36.84000 -87.09754 15295 ft 350 kts 187°
2026-05-06 02:18 36.81565 -87.09409 14947 ft 357 kts 172°
2026-05-06 02:18 36.79229 -87.08293 14551 ft 362 kts 161°
2026-05-06 02:18 36.76977 -87.06912 14151 ft 360 kts 160°
2026-05-06 02:18 36.74744 -87.05520 13747 ft 357 kts 160°
2026-05-06 02:19 36.72530 -87.04160 13326 ft 353 kts 160°
2026-05-06 02:19 36.70335 -87.02825 12914 ft 349 kts 161°
2026-05-06 02:19 36.68165 -87.01501 12527 ft 345 kts 161°
2026-05-06 02:19 36.66054 -87.00208 12161 ft 341 kts 161°
2026-05-06 02:20 36.61861 -86.97642 11401 ft 324 kts 161°
2026-05-06 02:20 36.59935 -86.96322 11087 ft 304 kts 155°
2026-05-06 02:20 36.58283 -86.95022 10759 ft 261 kts 158°
2026-05-06 02:21 36.56822 -86.93909 10466 ft 233 kts 159°
2026-05-06 02:21 36.55507 -86.92915 10206 ft 211 kts 160°
2026-05-06 02:21 36.54291 -86.91991 9978 ft 201 kts 161°
2026-05-06 02:21 36.53104 -86.91092 9753 ft 198 kts 161°
2026-05-06 02:22 36.51936 -86.90197 9538 ft 197 kts 159°
2026-05-06 02:22 36.51078 -86.88778 9331 ft 217 kts 122°
2026-05-06 02:22 36.50560 -86.86967 9118 ft 224 kts 116°
2026-05-06 02:22 36.50105 -86.85162 9021 ft 219 kts 116°
2026-05-06 02:23 36.49648 -86.83326 9020 ft 224 kts 116°
2026-05-06 02:23 36.49191 -86.81487 9024 ft 223 kts 116°
2026-05-06 02:23 36.48734 -86.79647 9021 ft 222 kts 116°
2026-05-06 02:23 36.48276 -86.77803 9019 ft 224 kts 116°
2026-05-06 02:24 36.47818 -86.75958 8959 ft 226 kts 116°
2026-05-06 02:24 36.47358 -86.74108 8725 ft 222 kts 116°
2026-05-06 02:24 36.46908 -86.72284 8493 ft 221 kts 116°
2026-05-06 02:24 36.46461 -86.70462 8264 ft 219 kts 116°
2026-05-06 02:25 36.46021 -86.68655 8040 ft 218 kts 116°
2026-05-06 02:25 36.45586 -86.66851 7821 ft 217 kts 116°
2026-05-06 02:25 36.45158 -86.65059 7585 ft 216 kts 115°
2026-05-06 02:25 36.44731 -86.63302 7369 ft 215 kts 115°
2026-05-06 02:26 36.44245 -86.61578 7139 ft 205 kts 133°
2026-05-06 02:26 36.43285 -86.60486 6947 ft 181 kts 162°
2026-05-06 02:26 36.42170 -86.59725 6440 ft 181 kts 165°
2026-05-06 02:26 36.41067 -86.59012 5879 ft 176 kts 166°
2026-05-06 02:27 36.39981 -86.58368 5330 ft 171 kts 168°
2026-05-06 02:27 36.38906 -86.57771 4789 ft 168 kts 168°
2026-05-06 02:27 36.37828 -86.57344 4245 ft 156 kts 184°
2026-05-06 02:27 36.36809 -86.57294 4069 ft 140 kts 189°
2026-05-06 02:28 36.35797 -86.57344 4069 ft 148 kts 192°
2026-05-06 02:28 36.34823 -86.57482 4060 ft 141 kts 197°
2026-05-06 02:28 36.33862 -86.57761 4061 ft 140 kts 201°
2026-05-06 02:28 36.32931 -86.58105 4068 ft 141 kts 203°
2026-05-06 02:29 36.31991 -86.58482 4073 ft 142 kts 203°
2026-05-06 02:29 36.31049 -86.58861 4072 ft 142 kts 202°
2026-05-06 02:29 36.30110 -86.59238 3935 ft 140 kts 203°
2026-05-06 02:29 36.29187 -86.59609 3765 ft 138 kts 202°
2026-05-06 02:30 36.28285 -86.59971 3566 ft 137 kts 202°
2026-05-06 02:30 36.27395 -86.60328 3400 ft 133 kts 201°
2026-05-06 02:30 36.26512 -86.60683 3217 ft 131 kts 199°
2026-05-06 02:30 36.25659 -86.61020 3055 ft 130 kts 198°
2026-05-06 02:31 36.24790 -86.61369 2890 ft 133 kts 198°
2026-05-06 02:31 36.23927 -86.61716 2717 ft 128 kts 198°
2026-05-06 02:31 36.23068 -86.62055 2533 ft 132 kts 199°
2026-05-06 02:31 36.22190 -86.62404 2366 ft 131 kts 199°
2026-05-06 02:32 36.21315 -86.62756 2196 ft 135 kts 197°
2026-05-06 02:32 36.20438 -86.63107 2022 ft 128 kts 197°
2026-05-06 02:32 36.19569 -86.63456 1837 ft 135 kts 197°
2026-05-06 02:32 36.18697 -86.63800 1679 ft 133 kts 195°
2026-05-06 02:33 36.17782 -86.64166 1475 ft 142 kts 195°
2026-05-06 02:33 36.17137 -86.64423 1356 ft 146 kts 197°
2026-05-06 02:33 36.14819 -86.65346 884 ft 151 kts 199°
2026-05-06 02:34 36.13796 -86.65752 682 ft 156 kts 197°
2026-05-06 02:34 36.12852 -86.66163 570 ft 125 kts 198°
2026-05-06 02:34 36.12228 -86.66392 576 ft 59 kts 196°
2026-05-06 02:34 36.11982 -86.66480 580 ft 27 kts 200°
2026-05-06 02:35 36.11870 -86.66544 584 ft 10 kts 216°
2026-05-06 02:35 36.11854 -86.66561 584 ft 0 kts 226°
2026-05-06 02:35 36.11845 -86.66577 585 ft 7 kts 238°
2026-05-06 02:35 36.11843 -86.66615 585 ft 2 kts 284°
2026-05-06 02:36 36.11844 -86.66618 585 ft 0 kts 284°
2026-05-06 02:37 36.11844 -86.66619 585 ft 1 kts 285°
2026-05-06 02:37 36.11865 -86.66651 585 ft 9 kts 326°
2026-05-06 02:37 36.11954 -86.66634 584 ft 18 kts 21°
2026-05-06 02:37 36.12107 -86.66574 577 ft 30 kts 16°
2026-05-06 02:38 36.12272 -86.66537 577 ft 18 kts 339°
2026-05-06 02:38 36.12296 -86.66569 578 ft 6 kts 290°
2026-05-06 02:38 36.12315 -86.66645 574 ft 12 kts 286°
2026-05-06 02:38 36.12339 -86.66747 582 ft 13 kts 285°
2026-05-06 02:39 36.12393 -86.66884 578 ft 22 kts 309°
2026-05-06 02:39 36.12516 -86.66931 577 ft 22 kts 27°
2026-05-06 02:39 36.12658 -86.66815 575 ft 21 kts 41°
2026-05-06 02:39 36.12736 -86.66822 572 ft 8 kts 336°
2026-05-06 02:40 36.12767 -86.66853 569 ft 0 kts 313°
2026-05-06 02:40 36.12769 -86.66855 568 ft 0 kts 313°